CAPE
0 0 0 0 0 0 0 0 0 0 0 0 0 0 0 0 0 0 0 0 0 0 0 0 0 0 0 44 37 10 98 137 128 95 177 31 9 0 0 4 0 0 0 0 0
1 1 0 0 0 0 0 0 0 0 0 0 0 0 0 0 0 0 0 0 0 0 0 0 0 0 31 109 101 88 178 186 112 225 149 6 18 0 0 0 0 0 0 0 0
1 1 2 2 0 0 0 0 0 0 0 0 0 0 0 0 0 0 0 0 0 0 0 0 0 0 189 150 101 38 276 103 95 68 57 15 16 0 0 0 0 0 0 0 0
0 1 0 1 2 0 0 0 0 0 0 0 0 0 0 0 0 0 0 0 0 0 0 0 0 110 203 199 50 58 19 23 29 34 42 36 3 0 13 25 0 0 0 0 0
0 0 1 1 0 1 0 0 0 0 0 0 0 0 0 0 0 0 0 0 0 0 0 0 4 141 169 56 43 45 20 30 8 6 14 3 0 0 4 0 0 0 0 0 0
0 0 0 0 1 0 1 0 0 0 0 0 0 0 0 0 0 0 0 0 0 0 0 0 97 138 71 71 78 17 33 21 9 3 0 0 0 0 0 0 0 0 0 0 0
0 0 0 0 0 1 1 0 0 0 0 0 0 0 0 0 0 0 0 0 0 0 0 4 85 60 34 32 13 5 26 1 1 0 0 0 0 0 0 0 0 0 0 0 0
0 0 0 0 0 0 0 0 0 0 0 0 0 0 0 0 0 0 0 0 0 18 37 27 31 27 49 22 3 1 1 13 6 0 0 0 88 0 0 0 0 0 0 0 0
0 0 0 0 0 0 0 0 0 0 0 0 0 0 0 0 0 0 0 0 0 0 0 0 28 41 1 55 64 54 105 36 9 0 0 0 45 0 0 0 0 0 0 0 0
0 0 0 0 0 0 0 0 0 0 0 0 0 0 0 0 0 0 0 0 0 0 0 1 25 25 31 44 81 70 24 2 19 0 0 0 0 0 0 0 0 0 0 0 0
0 0 0 0 0 0 0 0 0 0 0 0 0 0 0 0 0 0 0 0 0 0 0 0 0 0 0 0 13 2 0 0 0 0 0 0 0 0 0 0 0 0 0 0 0
0 0 0 0 0 0 0 0 0 0 0 0 0 0 0 0 0 0 0 0 0 0 0 0 0 3 0 0 0 0 0 0 1 0 0 0 0 0 0 0 0 0 0 0 0
0 0 0 0 0 0 0 0 0 0 0 0 0 0 0 0 0 0 0 0 0 0 0 0 46 1 0 0 0 0 0 0 0 0 0 0 0 0 0 0 0 0 0 0 0
0 0 0 0 0 85 0 0 0 0 0 0 0 0 0 0 0 0 0 0 2 0 0 0 0 0 0 0 0 0 0 0 0 0 0 0 0 0 0 0 0 0 0 0 0
0 0 0 0 0 129 0 0 0 0 1499 0 0 0 0 0 0 0 0 0 0 0 0 0 0 0 0 0 0 0 0 0 0 0 0 0 0 0 0 0 0 0 0 0 0
0 0 0 0 0 3 0 0 0 106 100 0 0 0 0 0 0 0 0 0 0 0 0 0 0 0 0 0 0 0 0 0 0 0 0 0 0 0 0 0 0 0 0 0 0
0 0 0 0 3 4 22 0 97 304 0 0 0 0 0 0 0 0 0 0 0 0 0 0 0 0 0 0 0 0 0 0 0 0 0 0 0 0 0 0 0 0 0 0 0
0 0 0 0 0 1 78 0 93 0 0 0 0 0 0 0 0 0 0 0 0 0 0 0 0 0 0 0 0 0 0 1 0 9 1 0 0 0 0 0 0 0 0 0 0
0 0 0 0 0 6 319 359 0 0 0 0 0 0 0 0 0 0 0 0 0 0 0 0 0 0 0 0 0 0 0 0 0 0 0 0 0 0 0 0 0 0 0 0 0
0 0 0 6 14 133 46 23 11 0 0 0 0 0 0 0 0 0 0 0 0 0 0 0 0 0 0 0 0 0 0 0 18 62 0 0 0 0 0 0 0 0 0 0 0
0 0 27 19 34 172 45 42 30 0 0 0 0 0 0 0 0 0 0 0 0 0 0 0 0 0 0 0 0 0 0 0 6 0 0 0 0 0 0 0 0 0 0 0 0
0 0 53 16 111 34 42 27 3 37 0 0 0 0 0 0 0 0 0 0 0 0 0 0 0 0 0 0 0 0 0 0 9 0 0 0 0 0 0 0 0 0 0 0 0
0 3 97 86 25 29 28 10 26 1 4 0 0 0 0 0 0 0 0 0 0 0 0 0 0 0 0 0 0 0 0 0 1 0 0 0 0 0 0 0 0 0 0 0 0
2 29 19 76 37 42 35 27 38 2 5 0 0 0 0 0 0 0 0 0 0 0 0 0 0 0 0 0 0 0 0 0 2 0 0 0 0 0 0 0 0 0 0 0 0
6 7 26 77 40 30 45 44 59 29 1 10 1 0 0 0 0 0 0 0 0 0 0 0 0 0 0 0 0 0 0 0 0 0 0 0 0 0 0 0 0 0 0 0 0
40 26 19 27 27 31 33 16 53 65 24 19 9 1 0 0 0 0 0 0 0 0 0 0 0 0 0 0 0 0 0 0 0 0 0 0 0 0 0 0 0 0 0 0 0
23 20 21 6 22 55 33 34 22 59 68 48 14 4 0 0 0 0 1 0 0 0 0 0 0 0 0 0 0 0 0 0 0 0 0 0 0 0 0 0 0 0 0 0 0
CIN
-0 -0 -0 -0 -0 -0 -0 -0 -0 -0 -0 -0 -0 -0 -0 -0 -0 -0 -0 -0 -0 -0 -0 -0 -0 -0 -0 -37 -63 -59 -2 -3 -1 -27 -53 -209 -165 -0 -0 -22 -0 -0 -0 -0 -0
-0 -0 -0 -0 -0 -0 -0 -0 -0 -0 -0 -0 -0 -0 -0 -0 -0 -0 -0 -0 -0 -0 -0 -0 -0 -0 -9 -2 -25 -46 -0 -0 -2 -6 -71 -213 -101 -0 -0 -0 -0 -0 -0 -0 -0
-0 -0 -0 -0 -0 -0 -0 -0 -0 -0 -0 -0 -0 -0 -0 -0 -0 -0 -0 -0 -0 -0 -0 -0 -0 -0 -0 -1 -14 -44 -2 -51 -74 -86 -113 -138 -73 -0 -0 -0 -0 -0 -0 -0 -0
-0 -0 -0 -0 -0 -0 -0 -0 -0 -0 -0 -0 -0 -0 -0 -0 -0 -0 -0 -0 -0 -0 -0 -0 -0 -3 -0 -0 -44 -39 -93 -85 -135 -116 -75 -51 -27 -0 -14 -0 -0 -0 -0 -0 -0
-0 -0 -0 -0 -0 -0 -0 -0 -0 -0 -0 -0 -0 -0 -0 -0 -0 -0 -0 -0 -0 -0 -0 -0 -1 -0 -3 -7 -26 -42 -111 -126 -192 -209 -105 -90 -0 -0 -9 -0 -0 -0 -0 -0 -0
-0 -0 -0 -0 -0 -0 -0 -0 -0 -0 -0 -0 -0 -0 -0 -0 -0 -0 -0 -0 -0 -0 -0 -0 -0 -0 -4 -8 -9 -68 -87 -123 -178 -190 -0 -0 -0 -0 -0 -0 -0 -0 -0 -0 -0
-0 -0 -0 -0 -0 -0 -0 -0 -0 -0 -0 -0 -0 -0 -0 -0 -0 -0 -0 -0 -0 -0 -0 -1 -1 -8 -42 -49 -57 -78 -80 -69 -58 -0 -0 -0 -0 -0 -0 -0 -0 -0 -0 -0 -0
-0 -0 -0 -0 -0 -0 -0 -0 -0 -0 -0 -0 -0 -0 -0 -0 -0 -0 -0 -0 -0 -27 -35 -57 -51 -34 -28 -82 -31 -6 -19 -49 -142 -0 -0 -0 -2 -0 -0 -0 -0 -0 -0 -0 -0
-0 -0 -0 -0 -0 -0 -0 -0 -0 -0 -0 -0 -0 -0 -0 -0 -0 -0 -0 -0 -0 -0 -0 -0 -74 -64 -4 -31 -34 -31 -0 -12 -60 -88 -0 -0 -0 -0 -0 -0 -0 -0 -0 -0 -0
-0 -0 -0 -0 -0 -0 -0 -0 -0 -0 -0 -0 -0 -0 -0 -0 -0 -0 -0 -0 -0 -0 -0 -5 -47 -45 -30 -14 -0 -1 -5 -21 -48 -7 -0 -0 -0 -0 -0 -0 -0 -0 -0 -0 -0
-0 -0 -0 -0 -0 -0 -0 -0 -0 -0 -0 -0 -0 -0 -0 -0 -0 -0 -0 -0 -0 -0 -0 -0 -0 -0 -0 -0 -2 -0 -0 -0 -0 -0 -0 -0 -0 -0 -0 -0 -0 -0 -0 -0 -0
-0 -0 -0 -0 -0 -0 -0 -0 -0 -0 -0 -0 -0 -0 -0 -0 -0 -0 -0 -0 -0 -0 -0 -0 -0 -0 -0 -0 -0 -0 -0 -0 -0 -0 -0 -0 -0 -0 -0 -0 -0 -0 -0 -0 -0
-0 -0 -0 -0 -0 -0 -0 -0 -0 -0 -0 -0 -0 -0 -0 -0 -0 -0 -0 -11 -0 -0 -0 -0 -1 -1 -0 -0 -0 -0 -0 -0 -0 -0 -0 -0 -0 -0 -0 -0 -0 -0 -0 -0 -0
-0 -0 -0 -0 -0 -41 -0 -0 -0 -0 -0 -0 -0 -0 -0 -0 -0 -0 -0 -0 -114 -0 -0 -0 -0 -11 -0 -0 -0 -0 -0 -0 -0 -0 -0 -0 -0 -0 -0 -0 -0 -0 -0 -0 -0
-0 -0 -0 -0 -0 -23 -0 -0 -0 -0 -0 -0 -0 -0 -0 -0 -0 -0 -0 -0 -0 -0 -0 -0 -0 -0 -0 -0 -0 -0 -0 -0 -0 -0 -0 -0 -0 -0 -0 -0 -0 -0 -0 -0 -0
-0 -0 -0 -0 -0 -0 -0 -0 -0 -0 -0 -0 -0 -0 -0 -0 -0 -0 -0 -0 -0 -0 -0 -0 -0 -0 -0 -0 -0 -0 -0 -0 -0 -0 -0 -0 -0 -0 -0 -0 -0 -0 -0 -0 -0
-0 -0 -0 -0 -0 -0 -52 -0 -0 -0 -0 -0 -0 -0 -0 -0 -0 -0 -0 -0 -0 -0 -0 -0 -0 -0 -0 -0 -0 -0 -0 -0 -0 -0 -0 -0 -0 -0 -0 -0 -0 -0 -0 -0 -0
-0 -0 -0 -0 -0 -0 -30 -0 -0 -0 -0 -0 -0 -0 -0 -0 -0 -0 -0 -0 -0 -0 -0 -0 -0 -0 -0 -0 -0 -0 -0 -0 -0 -23 -0 -0 -0 -0 -0 -0 -0 -0 -0 -0 -0
-0 -0 -0 -0 -0 -0 -0 -0 -0 -0 -0 -0 -0 -0 -0 -0 -0 -0 -0 -0 -0 -0 -0 -0 -0 -0 -0 -0 -0 -0 -0 -0 -0 -0 -0 -0 -0 -0 -0 -0 -0 -0 -0 -0 -0
-0 -0 -0 -0 -0 -1 -0 -7 -0 -0 -0 -0 -0 -0 -0 -0 -0 -0 -0 -0 -0 -0 -0 -0 -0 -0 -0 -0 -0 -0 -0 -0 -0 -6 -0 -0 -0 -0 -0 -0 -0 -0 -0 -0 -0
-0 -0 -0 -0 -0 -0 -0 -0 -0 -0 -0 -0 -0 -0 -0 -0 -0 -0 -0 -0 -0 -0 -0 -0 -0 -0 -0 -0 -0 -0 -0 -0 -1 -0 -0 -0 -0 -0 -0 -0 -0 -0 -0 -0 -0
-0 -0 -0 -0 -0 -0 -0 -0 -2 -0 -0 -0 -0 -0 -0 -0 -0 -0 -0 -0 -0 -0 -0 -0 -0 -0 -0 -0 -0 -0 -0 -0 -0 -0 -0 -0 -0 -0 -0 -0 -0 -0 -0 -0 -0
-0 -0 -0 -0 -0 -0 -0 -0 -0 -0 -0 -0 -0 -0 -0 -0 -0 -0 -0 -0 -0 -0 -0 -0 -0 -0 -0 -0 -0 -0 -0 -0 -17 -0 -0 -0 -0 -0 -0 -0 -0 -0 -0 -0 -0
-0 -0 -1 -0 -0 -0 -0 -0 -0 -0 -0 -0 -0 -0 -0 -0 -0 -0 -0 -0 -0 -0 -0 -0 -0 -0 -0 -0 -0 -0 -0 -0 -46 -0 -0 -0 -0 -0 -0 -0 -0 -0 -0 -0 -0
-0 -0 -0 -0 -0 -0 -0 -0 -0 -0 -0 -0 -0 -0 -0 -0 -0 -0 -0 -0 -0 -0 -0 -0 -0 -0 -0 -0 -0 -0 -0 -0 -0 -0 -0 -0 -0 -0 -0 -0 -0 -0 -0 -0 -0
-0 -0 -0 -0 -0 -0 -0 -0 -0 -0 -0 -0 -0 -0 -0 -0 -0 -0 -0 -0 -0 -0 -0 -0 -0 -0 -0 -0 -0 -0 -0 -0 -0 -0 -0 -0 -0 -0 -0 -0 -0 -0 -0 -0 -0
-0 -0 -0 -0 -0 -0 -0 -0 -2 -2 -1 -0 -0 -0 -0 -0 -0 -0 -8 -0 -0 -0 -0 -0 -0 -0 -0 -0 -0 -0 -0 -0 -0 -0 -0 -0 -0 -0 -0 -0 -0 -0 -0 -0 -0
Wind_Speed
11 12 12 12 14 16 18 18 17 16 16 17 18 14 15 14 9 7 6 6 4 8 5 12 13 11 10 3 3 6 9 5 7 12 13 15 12 8 7 11 6 5 4 15 16
14 15 15 14 13 15 18 19 19 17 16 17 17 15 13 11 11 12 7 9 7 7 13 12 13 11 11 3 2 8 10 15 8 9 14 16 13 12 9 11 8 8 6 16 15
18 17 17 17 16 17 18 19 19 18 17 16 15 14 12 11 11 6 5 2 8 11 18 14 7 11 6 4 1 1 10 8 6 3 15 16 11 10 10 11 12 13 17 16 14
19 19 19 19 19 18 18 20 21 19 18 16 14 12 11 9 4 8 3 6 10 15 17 13 11 12 6 4 2 6 5 5 7 8 13 12 12 9 10 6 11 14 17 16 14
19 19 20 21 21 20 20 20 22 20 18 16 12 10 6 10 3 6 8 6 12 15 15 11 11 8 6 1 5 9 9 10 10 8 9 6 9 6 11 4 5 15 16 15 13
20 20 21 21 22 23 22 21 22 20 17 15 11 8 9 14 4 4 2 9 12 15 15 13 11 3 3 2 8 9 11 12 10 10 6 9 8 6 9 7 12 15 14 13 12
19 21 22 22 21 22 25 23 22 20 15 12 9 6 10 1 3 4 7 8 11 14 10 6 4 11 7 5 9 13 14 10 9 10 10 8 10 11 14 13 14 15 13 13 12
19 21 22 24 24 24 25 24 22 18 13 10 7 8 5 1 6 3 8 6 7 8 1 3 2 1 7 10 11 11 11 10 11 11 8 9 13 16 15 16 16 15 14 13 14
20 21 23 24 25 26 26 26 21 13 8 8 6 6 4 5 4 4 4 8 10 9 10 6 3 3 8 13 11 12 10 12 12 14 11 15 4 18 16 16 16 15 15 14 13
20 22 23 24 25 28 27 24 10 10 7 7 5 6 4 4 5 4 5 8 8 12 10 8 7 9 11 12 13 14 16 8 12 17 13 16 16 14 16 18 17 16 16 15 14
20 21 23 24 25 28 19 9 5 7 4 6 4 5 2 3 4 9 3 7 10 8 11 7 10 12 17 17 10 11 10 9 9 12 14 15 15 15 17 17 17 17 17 16 16
19 20 23 25 25 26 13 6 6 5 8 5 5 6 4 3 6 8 3 9 8 13 5 8 12 10 10 4 10 11 8 9 7 8 11 14 17 16 15 19 17 17 17 16 15
19 21 22 25 26 11 6 8 7 4 8 5 7 7 5 7 8 12 5 9 9 12 10 13 12 10 4 6 8 7 9 5 8 9 12 14 19 19 15 15 16 16 14 15 15
18 21 22 27 6 5 2 8 7 3 7 10 8 7 8 6 8 3 2 4 6 10 10 10 5 6 8 8 5 10 4 9 4 8 6 8 11 10 7 11 16 15 14 15 15
18 20 22 18 11 4 7 8 4 4 3 2 8 5 7 12 7 11 5 6 11 10 6 1 5 12 13 9 4 4 6 6 6 9 10 11 8 4 8 9 10 10 13 15 17
18 19 21 4 6 6 8 9 4 3 8 6 5 10 12 14 8 8 9 4 2 6 7 3 3 8 10 2 3 1 2 3 5 8 9 14 5 1 7 8 2 3 2 8 16
17 20 15 9 1 8 10 5 5 5 3 8 7 8 15 11 12 13 14 15 11 11 12 5 8 4 4 8 3 9 6 6 6 7 8 4 5 5 7 6 6 5 7 5 3
18 23 6 8 7 9 7 6 5 7 10 2 4 8 12 10 14 13 12 15 19 16 9 11 9 13 9 8 6 11 12 6 6 6 2 4 6 7 6 6 7 10 11 10 6
24 5 5 3 6 5 8 5 7 9 5 5 6 9 11 11 6 11 15 15 14 15 12 9 9 6 3 3 4 6 6 5 8 3 7 9 5 6 4 8 9 12 12 12 9
8 6 4 3 4 5 5 9 12 5 1 8 12 9 12 14 11 10 12 7 12 11 14 5 5 4 6 5 4 7 3 5 3 1 8 8 6 2 10 9 8 9 10 10 10
6 5 6 2 3 6 9 10 12 6 6 5 9 5 8 5 11 11 4 5 10 11 9 12 9 8 4 10 10 6 8 5 4 5 5 8 3 6 9 6 6 9 9 9 9
4 5 5 3 8 9 12 15 4 14 7 6 5 7 8 7 7 9 8 4 5 8 12 10 6 10 9 5 2 8 10 12 4 7 5 5 6 2 6 6 5 7 9 9 9
4 5 5 4 7 11 12 17 12 16 13 8 8 8 4 7 6 9 5 7 5 8 6 9 7 5 7 5 5 7 10 1 4 5 10 7 4 6 7 7 7 7 7 8 8
4 2 1 3 8 11 16 15 18 14 13 10 6 5 8 9 8 3 6 4 3 9 6 3 7 11 7 3 8 5 9 4 5 6 9 13 14 10 11 5 4 4 6 7 7
4 5 2 4 7 13 12 11 19 19 14 6 8 12 11 9 11 11 9 7 7 6 4 7 7 9 4 5 6 5 8 13 11 16 11 13 13 8 7 8 4 3 6 7 8
2 4 3 8 7 14 13 11 17 17 16 18 14 12 5 12 10 8 12 9 9 11 12 7 5 6 7 8 9 11 9 12 16 16 18 16 14 7 8 5 4 3 8 9 10
4 3 3 7 10 10 13 16 10 16 15 10 15 14 11 5 14 16 14 5 8 10 14 10 6 5 6 5 5 9 15 17 17 15 10 13 8 9 6 6 4 8 9 11 13
Wind_Direction
346 344 346 345 340 336 333 331 333 333 330 323 323 329 326 326 316 218 252 83 130 181 210 201 225 231 240 205 260 277 256 178 127 183 127 144 174 184 36 123 188 116 331 126 136
353 348 342 336 335 331 328 328 328 328 328 323 319 323 320 326 248 235 134 119 148 192 210 208 217 219 226 219 183 276 282 52 20 52 147 167 185 156 181 156 168 147 146 126 154
355 350 345 338 334 328 323 323 323 324 324 320 316 318 323 309 249 197 141 240 191 196 238 236 248 230 261 278 17 46 28 88 64 61 143 168 166 165 192 185 176 165 153 154 165
354 353 347 341 333 325 320 318 318 321 319 316 314 313 321 234 250 88 138 213 193 201 236 232 213 229 249 273 191 138 59 78 91 135 154 168 130 168 212 110 152 149 156 163 174
353 349 347 343 334 322 320 317 313 318 314 311 310 313 271 217 252 100 133 136 168 195 225 215 220 239 239 87 126 103 106 108 118 129 153 137 155 187 219 118 147 137 164 173 179
350 345 343 339 337 328 320 316 313 314 310 304 305 307 238 252 7 315 243 189 198 207 220 223 242 333 72 14 305 121 132 128 146 125 137 189 148 244 139 152 143 159 176 179 184
349 343 340 335 336 329 320 315 313 309 304 295 297 283 253 357 348 333 176 206 220 223 225 225 295 205 139 127 125 133 138 146 158 161 154 225 180 207 133 165 166 178 182 183 185
347 343 338 335 332 327 319 315 310 302 292 284 287 273 275 84 337 283 161 178 207 222 83 76 296 139 225 122 152 176 175 176 164 167 141 227 197 183 161 174 181 190 190 190 186
347 343 338 336 332 324 319 310 301 283 270 263 254 241 197 134 191 139 242 119 107 111 105 124 182 166 159 179 182 194 220 225 166 196 155 214 124 149 174 188 190 196 198 197 191
349 344 339 335 331 324 319 297 288 297 233 234 248 238 182 189 103 116 86 149 134 140 155 192 182 182 211 206 211 184 242 194 196 190 218 203 248 147 183 200 204 197 205 199 202
348 344 338 335 330 323 325 306 254 191 293 331 0 323 256 100 205 198 127 184 170 220 236 208 238 221 209 226 298 302 240 205 216 149 211 231 238 228 181 205 211 206 206 205 202
347 342 336 332 329 319 304 34 39 344 299 229 255 259 236 292 190 186 218 205 211 234 182 220 236 248 250 268 271 253 232 230 151 133 231 251 241 232 202 203 215 216 210 211 201
345 340 337 326 324 296 42 31 325 290 258 178 222 235 190 206 212 184 222 219 226 236 237 264 21 74 188 208 239 241 253 221 265 166 235 280 267 244 219 210 201 225 229 213 206
343 339 336 328 299 344 89 355 353 301 262 155 200 196 190 208 226 109 215 242 215 254 242 259 105 200 203 219 259 262 249 309 184 225 275 191 300 177 196 204 196 214 219 232 214
340 337 333 327 312 288 15 340 354 246 273 197 148 57 165 198 105 175 169 198 235 211 234 220 221 211 209 215 315 19 322 272 252 258 318 236 255 159 129 187 202 215 232 225 224
332 333 335 294 267 327 328 317 244 233 242 178 179 195 185 211 207 118 181 217 283 196 231 28 322 233 235 103 277 19 221 229 259 266 263 265 236 248 99 47 129 92 251 229 220
325 317 314 299 332 334 312 241 218 214 236 172 196 185 207 185 198 200 185 194 200 208 216 182 197 157 237 224 212 221 222 254 227 212 255 48 255 4 74 60 34 35 30 353 239
319 309 291 264 303 327 274 212 212 234 229 55 202 199 208 193 212 209 209 215 212 218 231 210 187 191 164 240 275 215 234 221 263 285 237 144 246 89 88 89 90 71 63 60 66
311 311 265 246 241 251 246 199 202 244 290 209 185 201 196 185 267 214 225 226 201 219 222 217 212 114 183 183 251 168 226 304 284 260 282 273 195 181 155 127 108 84 69 61 62
319 312 257 38 263 243 243 225 224 283 309 261 229 214 200 190 201 198 205 231 232 200 235 223 212 208 131 198 198 279 35 214 218 230 259 260 254 273 160 135 110 71 60 48 47
273 279 80 112 265 217 220 228 223 230 276 249 244 225 258 182 202 199 204 137 230 184 233 233 235 137 174 204 212 183 219 220 280 239 271 280 281 2 133 128 83 62 41 36 40
289 238 83 133 207 214 227 221 273 239 229 248 279 283 267 216 227 232 236 241 173 189 209 208 241 227 216 94 320 301 240 214 195 221 241 291 270 201 114 118 49 20 58 60 61
266 317 83 194 217 229 223 220 231 237 215 216 229 235 211 253 243 226 238 70 192 214 223 157 225 212 201 177 189 226 213 24 322 272 244 238 264 180 151 162 54 48 61 67 57
293 287 211 197 272 278 229 221 212 233 269 203 266 292 223 235 241 269 205 139 222 235 27 287 230 208 241 22 124 196 195 169 207 229 239 249 253 175 198 159 82 58 76 66 77
226 254 342 216 214 246 264 248 226 218 221 212 243 244 233 236 230 222 242 149 199 156 217 237 228 234 249 230 223 209 198 187 201 226 231 252 252 257 24 64 76 77 116 106 93
246 303 343 292 275 205 239 256 258 217 222 218 244 224 266 265 241 237 230 214 208 176 209 212 242 214 236 235 247 251 241 226 221 238 240 251 264 46 87 82 75 99 115 108 103
283 154 284 291 236 251 217 227 249 258 235 239 209 223 228 309 329 315 320 249 244 185 205 200 223 198 233 209 257 263 243 246 248 228 254 262 270 123 152 96 86 104 111 115 115